Tracking 19192 objects as of 18-Jun-2018
HD Live streaming from Space Station
objects crossing your sky now

FENGYUN 1C DEB

Track FENGYUN 1C DEB now!
10-day predictions


NORAD ID: 30932
Int'l Code: 1999-025AZW
Perigee: 823.5 km
Apogee: 938.6 km
Inclination: 98.9 °
Period: 102.4 minutes
Semi major axis: 7252 km
RCS: 0.0074 m2 (small)
Launch date: May 10, 1999
Source: People's Republic of China (PRC)
Launch site: Taiyaun Space Center, China (TSC)

Note: This is SATELLITE DEBRIS
aabbcc
Your satellite tracking list
Your tracking list is empty




NASA's NSSDC Master Catalog

Two Line Element Set (TLE):
1 30932U 99025AZW 18168.28402878  .00000629  00000-0  40017-3 0  9997
2 30932  98.9067  86.6470 0079385  89.2970  40.4461 14.05757928578889
Source of the keplerian elements: AFSPC